Weather History for KNJM - February, 2014

Change the Weather History Date:

Sunday, February 2, 2014

  Actual Average (KNKT) Record (KNKT)
Temperature  
Mean Temperature 50 °F -  
Max Temperature 57 °F 53 °F 71 °F (2012)
Min Temperature 43 °F 34 °F 25 °F (2000)
Degree Days  
Heating Degree Days 15    
Moisture  
Dew Point 46 °F    
Average Humidity 91    
Maximum Humidity 100    
Minimum Humidity 74    
Precipitation  
Precipitation 0.00 in - - ()
Sea Level Pressure  
Sea Level Pressure 30.12 in    
Wind  
Wind Speed 3 mph (WSW)    
Max Wind Speed 8 mph    
Max Gust Speed -    
Visibility 5 miles    
Events Fog    
Averages and records for this station are not official NWS values.
T = Trace of Precipitation, MM = Missing Value Source: NWS Daily Summary

Daily Weather History Graph

Daily Weather History Graph

Search for Another Location

Airport or City:

Trip Planner

Search our weather history database for the weather conditions in past years. The results will help you decide how hot, cold, wet, or windy it might be!

Date:

Astronomy

Feb. 02, 2014 Rise Set
Actual Time 7:05 AM EST 5:38 PM EST
Civil Twilight 6:39 AM EST 6:04 PM EST
Nautical Twilight 6:09 AM EST 6:35 PM EST
Astronomical Twilight 5:39 AM EST 7:04 PM EST
Moon 8:40 AM EST (2/2) 9:08 PM EST (2/2)
Length of Visible Light 11h 25m
Length of Day
10h 32m
Waxing Crescent, 11% of the Moon is Illuminated
Feb 2
Waxing Crescent
Feb 6
First Quarter
Feb 14
Full
Feb 22
Last Quarter
Mar 1
New

Hourly Weather History & Observations

Time (EST) Temp. Windchill Dew Point Humidity Pressure Visibility Wind Dir Wind Speed Gust Speed Precip Events Conditions
12:01 AM 43.0 °F 41.3 °F 42.1 °F 97% 30.12 in 0.5 mi WNW 3.5 mph - N/A Fog Fog
12:16 AM 43.0 °F 40.3 °F 43.0 °F 100% 30.11 in 0.5 mi NW 4.6 mph - N/A Fog Fog
12:36 AM 43.0 °F 41.3 °F 43.0 °F 100% 30.11 in 0.8 mi NW 3.5 mph - N/A   Overcast
12:42 AM 44.1 °F 41.5 °F 42.1 °F 93% 30.11 in 1.0 mi NW 4.6 mph - N/A   Overcast
12:53 AM 44.6 °F 42.2 °F 42.8 °F 93% 30.11 in 3.0 mi NW 4.6 mph - N/A   Overcast
12:57 AM 44.1 °F 41.5 °F 42.1 °F 93% 30.12 in 4.0 mi NW 4.6 mph - N/A   Overcast
1:10 AM 44.1 °F 42.5 °F 42.1 °F 93% 30.11 in 5.0 mi WNW 3.5 mph - N/A   Overcast
1:37 AM 44.1 °F - 44.1 °F 100% 30.11 in 6.0 mi Calm Calm - N/A   Overcast
1:50 AM 44.1 °F - 44.1 °F 100% 30.11 in 6.0 mi Calm Calm - N/A   Overcast
1:57 AM 44.1 °F - 44.1 °F 100% 30.12 in 6.0 mi Calm Calm - N/A   Overcast
2:09 AM 44.1 °F - 44.1 °F 100% 30.11 in 5.0 mi Calm Calm - N/A   Overcast
2:23 AM 44.1 °F - 43.0 °F 96% 30.11 in 1.8 mi Calm Calm - N/A   Overcast
2:32 AM 44.1 °F - 43.0 °F 96% 30.10 in 1.5 mi Calm Calm - N/A   Overcast
2:57 AM 44.1 °F - 43.0 °F 96% 30.12 in 1.5 mi Calm Calm - N/A   Overcast
3:19 AM 44.1 °F - 43.0 °F 96% 30.11 in 0.8 mi Calm Calm - N/A   Mist
3:45 AM 44.1 °F - 42.1 °F 93% 30.12 in 0.5 mi Calm Calm - N/A Fog Fog
3:52 AM 44.6 °F - 42.8 °F 93% 30.12 in 0.2 mi Calm Calm - N/A Fog Fog
3:57 AM 44.1 °F - 43.0 °F 96% 30.13 in 0.2 mi Calm Calm - N/A Fog Fog
4:22 AM 44.1 °F - 43.0 °F 96% 30.12 in 0.5 mi Calm Calm - N/A Fog Fog
4:37 AM 44.1 °F 42.5 °F 43.0 °F 96% 30.11 in 0.5 mi WSW 3.5 mph - N/A Fog Fog
4:57 AM 45.0 °F 43.5 °F 43.0 °F 93% 30.13 in 1.0 mi SW 3.5 mph - N/A   Overcast
5:04 AM 45.0 °F 42.6 °F 43.0 °F 93% 30.11 in 1.0 mi SW 4.6 mph - N/A   Overcast
5:50 AM 48.0 °F - 46.0 °F 93% 30.13 in 2.5 mi Variable 4.6 mph - N/A   Overcast
5:57 AM 48.0 °F - 46.0 °F 93% 30.14 in 2.5 mi WSW 4.6 mph - N/A   Overcast
6:10 AM 48.9 °F - 46.9 °F 93% 30.13 in 1.5 mi West 4.6 mph - N/A   Overcast
6:23 AM 48.9 °F - 46.9 °F 93% 30.13 in 3.0 mi WSW 6.9 mph - N/A   Overcast
6:31 AM 48.9 °F - 46.9 °F 93% 30.13 in 2.5 mi West 4.6 mph - N/A   Overcast
6:42 AM 50.0 °F - 48.0 °F 93% 30.13 in 4.0 mi Variable 4.6 mph - N/A   Overcast
6:57 AM 50.0 °F - 48.0 °F 93% 30.14 in 2.0 mi Calm Calm - N/A   Overcast
7:03 AM 50.0 °F - 48.0 °F 93% 30.13 in 0.8 mi WSW 3.5 mph - N/A   Overcast
7:12 AM 50.0 °F - 48.0 °F 93% 30.13 in 0.5 mi Calm Calm - N/A Fog Fog
7:22 AM 48.9 °F - 48.0 °F 97% 30.13 in 0.2 mi SW 4.6 mph - N/A Fog Fog
7:57 AM 48.9 °F - 46.9 °F 93% 30.15 in 0.2 mi WSW 3.5 mph - N/A Fog Fog
8:02 AM 48.0 °F - 46.9 °F 96% 30.14 in 0.5 mi SW 3.5 mph - N/A Fog Fog
8:25 AM 50.0 °F - 48.0 °F 93% 30.14 in 2.0 mi Variable 3.5 mph - N/A   Overcast
8:32 AM 50.0 °F - 48.9 °F 96% 30.14 in 6.0 mi WNW 5.8 mph - N/A   Overcast
8:57 AM 50.0 °F - 48.9 °F 96% 30.15 in 7.0 mi SW 3.5 mph - N/A   Overcast
9:35 AM 50.0 °F - 48.9 °F 96% 30.14 in 8.0 mi SW 3.5 mph - N/A   Overcast
9:57 AM 50.0 °F - 48.9 °F 96% 30.16 in 9.0 mi SW 4.6 mph - N/A   Overcast
10:04 AM 51.1 °F - 50.0 °F 96% 30.14 in 9.0 mi WSW 3.5 mph - N/A   Mostly Cloudy
10:57 AM 54.0 °F - 50.0 °F 86% 30.16 in 9.0 mi SW 5.8 mph - N/A   Scattered Clouds
11:13 AM 53.1 °F - 48.9 °F 86% 30.14 in 9.0 mi SW 5.8 mph - N/A   Mostly Cloudy
11:57 AM 54.0 °F - 48.9 °F 83% 30.15 in 10.0 mi WSW 6.9 mph - N/A   Mostly Cloudy
12:13 PM 54.0 °F - 48.9 °F 83% 30.13 in 10.0 mi WSW 6.9 mph - N/A   Scattered Clouds
12:28 PM 55.9 °F - 48.9 °F 77% 30.12 in 10.0 mi WSW 5.8 mph - N/A   Mostly Cloudy
12:38 PM 57.0 °F - 50.0 °F 77% 30.12 in 10.0 mi SW 6.9 mph - N/A   Scattered Clouds
12:57 PM 57.9 °F - 50.0 °F 75% 30.12 in 10.0 mi SW 5.8 mph - N/A   Clear
1:57 PM 57.9 °F - 50.0 °F 75% 30.10 in 10.0 mi SW 6.9 mph - N/A   Clear
2:57 PM 57.0 °F - 48.9 °F 74% 30.09 in 10.0 mi SSW 5.8 mph - N/A   Mostly Cloudy
3:57 PM 55.9 °F - 48.9 °F 77% 30.10 in 10.0 mi SW 6.9 mph - N/A   Mostly Cloudy
4:57 PM 55.0 °F - 50.0 °F 83% 30.11 in 10.0 mi SW 6.9 mph - N/A   Mostly Cloudy
5:57 PM 53.1 °F - 48.9 °F 86% 30.10 in 10.0 mi WSW 8.1 mph - N/A   Mostly Cloudy
6:57 PM 51.1 °F - 48.0 °F 89% 30.11 in 10.0 mi WSW 5.8 mph - N/A   Scattered Clouds
7:57 PM 51.1 °F - 48.0 °F 89% 30.11 in 10.0 mi WSW 4.6 mph - N/A   Clear
8:57 PM 50.0 °F - 46.9 °F 89% 30.11 in 10.0 mi WSW 6.9 mph - N/A   Clear
9:57 PM 50.0 °F - 46.9 °F 89% 30.11 in 9.0 mi WSW 5.8 mph - N/A   Clear
10:57 PM 51.1 °F - 48.0 °F 89% 30.11 in 10.0 mi WSW 6.9 mph - N/A   Clear
11:57 PM 51.1 °F - 48.0 °F 89% 30.09 in 9.0 mi WSW 6.9 mph - N/A   Clear